Flag for Switzerland Weather past 2 weeks in Wil, St. Gallen, Switzerland

37 °F


Feels Like: 32 °F
Forecast: 32 / 36 °F
Wind: 7 mph from South

Location: Zurich-Kloten

Current Time: Nov 25, 2015 at 2:16:35 AM

Latest Report: Nov 25, 2015 at 12:50 AM

Visibility: N/A

Pressure: 29.95 "Hg (27.89 "Hg at 575m altitude)

Humidity: 65%

Dew point: 27 °F

Location of WilLocation

Historic Weather in Wil — Graph


Wil temperature yesterday

Maximum temperature yesterday: 37 °F (at 11:20 PM)
Minimum temperature yesterday: 21 °F (at 5:20 AM)
Average temperature yesterday: 29 °F

Past Weeks' High & Low Weather Summary

High64 °F (Nov 10, 1:50 PM)100% (Nov 10, 12:20 AM)30.51 "Hg (Nov 10, 12:20 AM)
Low21 °F (Nov 24, 5:20 AM)42% (Nov 15, 11:20 AM)29.42 "Hg (Nov 21, 1:50 PM)
Average46 °F84%30.15 "Hg
* Reported Nov 10 12:20 AM — Nov 25 12:20 AM, Wil, Weather by CustomWeather, © 2015

Note: Actual official high and low records may vary slightly from our data, if they occured in-between our weather recording intervals... More about our weather records


Wil weather history for previous 24 hours

Time TempWeatherWind HumidityBarometerVisibility
12:20 AM
Wed, Nov 25
37 °FPassing clouds.8 mph65%29.95 "HgN/A
11:20 PM
Tue, Nov 24
37 °FPassing clouds.5 mph65%29.98 "HgN/A
10:50 PM36 °FPassing clouds.6 mph75%30.01 "HgN/A
10:20 PM36 °FPassing clouds.7 mph75%30.01 "HgN/A
9:50 PM36 °FPassing clouds.7 mph75%30.04 "HgN/A
9:20 PM36 °FPassing clouds.6 mph70%30.04 "HgN/A
8:50 PM34 °FPassing clouds.8 mph75%30.04 "HgN/A
8:20 PM36 °FPassing clouds.3 mph70%30.07 "HgN/A
7:50 PM34 °FPassing clouds.3 mph75%30.07 "HgN/A
7:20 PM34 °FClear.1 mph75%30.09 "Hg10 mi
6:50 PM34 °FClear.No wind75%30.09 "Hg10 mi
6:20 PM34 °FClear.5 mph75%30.09 "Hg10 mi
5:50 PM34 °FClear.3 mph75%30.12 "Hg10 mi
5:20 PM34 °FClear.6 mph75%30.12 "Hg10 mi
4:50 PM34 °FClear.3 mph75%30.12 "Hg10 mi
4:20 PM34 °FSunny.2 mph75%30.12 "Hg10 mi
3:50 PM36 °FPassing clouds.3 mph70%30.15 "HgN/A
3:20 PM36 °FSunny.2 mph75%30.15 "Hg10 mi
2:50 PM36 °FPassing clouds.3 mph75%30.15 "HgN/A
2:20 PM36 °FSunny.2 mph75%30.18 "Hg10 mi
1:50 PM34 °FScattered clouds.2 mph87%30.18 "HgN/A
1:20 PM32 °FScattered clouds.2 mph93%30.18 "Hg4 mi
12:50 PM30 °FIce fog.2 mph100%30.21 "Hg3 mi
12:20 PM28 °FIce fog.1 mph100%30.21 "Hg3 mi
11:50 AM28 °FIce fog.1 mph100%30.24 "Hg2 mi
11:20 AM27 °FIce fog.2 mph100%30.24 "Hg1 mi
10:50 AM27 °FLight snow. Ice fog.1 mph100%30.24 "Hg1 mi
10:20 AM27 °FIce fog.1 mph100%30.27 "Hg1 mi
9:50 AM25 °FIce fog.2 mph100%30.27 "Hg1 mi
9:20 AM23 °FIce fog.2 mph100%30.27 "Hg0 mi
8:50 AM23 °FIce fog.2 mph100%30.27 "Hg1 mi
7:50 AM21 °FIce fog.1 mph93%30.27 "Hg1 mi
7:20 AM21 °FIce fog.2 mph93%30.27 "Hg1 mi
6:50 AM21 °FIce fog.2 mph100%30.27 "Hg1 mi
6:20 AM21 °FIce fog.2 mph100%30.27 "Hg1 mi
5:50 AM21 °FIce fog.1 mph100%30.27 "Hg0 mi
5:20 AM21 °FPassing clouds.2 mph100%30.27 "Hg1 mi
4:50 AM23 °FFog.No wind100%30.27 "Hg2 mi
3:50 AM23 °FPassing clouds.1 mph100%30.27 "Hg5 mi
3:20 AM23 °FPassing clouds.3 mph100%30.27 "HgN/A
2:50 AM23 °FClear.2 mph100%30.27 "Hg10 mi
2:20 AM23 °FClear.No wind100%30.27 "Hg10 mi
Weather by CustomWeather, © 2015

See weather overviewHow to use our weather pages